Regional Weather Roundup
Issued by NWS Boston, MA

Current Version | Previous Version | Text Only | Print | Product List | Glossary Off
Versions: 1 2 3 4 5 6 7 8 9 10 11 12 13 14 15 16 17 18 19 20 21 22 23 24 25 26 27 28 29 30 31 32 33 34 35 36 37 38 39 40 41 42 43 44 45 46 47 48 49 50
000 ASUS41 KBOX 212210 RWRBOX REGIONAL WEATHER ROUNDUP NATIONAL WEATHER SERVICE TAUNTON MA 500 PM EST TUE NOV 21 2017 NOTE: "FAIR" INDICATES FEW OR NO CLOUDS BELOW 12,000 FEET WITH NO SIGNIFICANT WEATHER AND/OR OBSTRUCTIONS TO VISIBILITY. MAZALL-212300- EASTERN MASSACHUSETTS CITY SKY/WX TMP DP RH WIND PRES REMARKS BOSTON PTCLDY 53 36 52 SW15 30.00S BEVERLY CLEAR 54 34 46 S13 29.98R LAWRENCE CLEAR 56 33 42 SW13G26 29.99R BEDFORD PTCLDY 52 33 48 S13 29.97S BLUE HILL N/A 50 34 54 S18G28 29.98F NORWOOD CLEAR 55 36 48 S12G20 30.00F MARSHFIELD CLEAR 54 39 58 SW16 30.02S PLYMOUTH CLOUDY 55 40 56 SW12G25 30.04F TAUNTON CLOUDY 54 40 59 SW14 30.03F NEW BEDFORD CLOUDY 54 40 59 SW16G23 30.04F $$ MAZALL-212300- CAPE COD AND THE ISLANDS CITY SKY/WX TMP DP RH WIND PRES REMARKS FALMOUTH CLOUDY 54 43 66 SW18G26 30.06F HYANNIS CLEAR 54 45 71 S14 30.05F CHATHAM CLEAR 52 46 80 SW9G21 30.09S PROVINCETOWN CLEAR 53 44 71 SW20G25 30.05F NANTUCKET CLEAR 54 48 80 SW20G26 30.10F MARTHAS VNYRD CLEAR 55 43 63 SW18G25 30.08F $$ MAZALL-212300- CENTRAL AND WESTERN MASSACHUSETTS CITY SKY/WX TMP DP RH WIND PRES REMARKS WORCESTER CLEAR 49 31 49 S15G25 29.97F FITCHBURG CLEAR 54 34 46 S9 29.97S ORANGE CLOUDY 50 34 54 S14 29.94F SPRINGFIELD CLEAR 51 33 50 S16 29.96F WESTFIELD CLEAR 50 33 52 S13 29.96F NORTH ADAMS CLOUDY 53 23 31 VRB6G18 29.92R PITTSFIELD CLOUDY 50 23 34 S13 29.92R $$ RIZALL-212300- RHODE ISLAND CITY SKY/WX TMP DP RH WIND PRES REMARKS PROVIDENCE MOCLDY 53 39 59 SW14 30.05S NEWPORT CLOUDY 54 41 61 SW12G25 30.05F BLOCK ISLAND CLEAR 55 43 63 SW21G28 30.06F SMITHFIELD CLEAR 51 35 54 SW10G20 30.02S WESTERLY CLEAR 55 41 59 SW12 30.06F $$ CTZALL-212300- CONNECTICUT CITY SKY/WX TMP DP RH WIND PRES REMARKS BRADLEY INTL PTCLDY 51 36 56 S14 29.99F HARTFORD CLEAR 51 37 58 S7 30.00F BRIDGEPORT CLEAR 53 41 63 SW17 30.04R DANBURY CLEAR 48 32 53 S5 30.02R GROTON CLOUDY 53 41 63 SW14 30.04F NEW HAVEN PTCLDY 53 40 61 S9 30.04R CHESTER FAIR 50 37 62 S9G17 30.02F MERIDEN CLEAR 50 37 61 S8 30.02S WILLIMANTIC CLEAR 52 36 54 S10 30.03S OXFORD CLEAR 49 36 61 S8 30.01S $$ MEZ002-015-021-024-NHZ003-005-008-011-012-014-VTZ005-008-212300- NORTHERN NEW ENGLAND CITY SKY/WX TMP DP RH WIND PRES REMARKS PORTLAND ME PTCLDY 50 38 63 S12G20 29.93S BANGOR ME CLOUDY 45 32 60 S7 29.93S CONCORD NH CLEAR 53 26 35 S14 29.93R MANCHESTER NH PTCLDY 54 30 40 S13G20 29.94R NASHUA NH CLEAR 53 33 46 VRB7 29.96S PORTSMOUTH NH PTCLDY 54 30 40 S10 29.94R JAFFREY NH CLEAR 49 31 49 SW9 29.95S KEENE NH CLEAR 49 30 48 S9 29.95R BURLINGTON VT PTCLDY 52 22 30 S17G24 29.82R MT. WASHINGTON PTCLDY 28 9 43 W59G70 N/A WCI 8 $$ NYZ052-076-212300- EASTERN NEW YORK CITY SKY/WX TMP DP RH WIND PRES REMARKS ALBANY MOCLDY 54 24 31 S20G31 29.88F NEW YORK CITY MOCLDY 56 39 53 S8 30.02S $$ ANZALL-212300- MARINE OBSERVATIONS STATION/POSITION TIME TEMP WIND PRES VSBY WAVE AIR SEA DIR/SP/G HT/PER (UTC) (F) (DEG/KT/KT) (MB) (MI) (FT/S) BOSTON BUOY 2150 54 50 190/ 19/ 25 1015.3R 3/ 4 BUZZARDS BAY 2100 56 220/ 30/ 33 1018.3R NANTUCKET SOUND 2150 54 49 220/ 17/ 19 1018.5F 2/ 4 MASS BAY-STELLWA 2104 53 49 200/ 17/ 21 1015.0R 4/ 5 ISLE OF SHOALS 2100 55 200/ 23/ 28 1013.7S S OF BLOCK IS NOT AVBL $$ ......................KEY......................... SKY/WX - SKY CONDITION/PRESENT WEATHER TMP - TEMPERATURE IN FAHRENHEIT DWPT - DEWPOINT IN FAHRENHEIT RH - RELATIVE HUMIDITY IN PERCENT WIND - DIRECTION AND SPEED IN MPH PRES - MEAN SEA LEVEL PRESSURE IN INCHES OF HG WCI - WIND CHILL INDEX VSB - VISIBILITY IN MILES HX - HEAT INDEX TC - TEMPERATURE IN CELSIUS VRB - VARIABLE WIND DIRECTION N/A - NOT AVAILABLE

USA.gov is the U.S. government's official web portal to all federal, state and local government web resources and services.